Tracking 27420 objects as of 29-May-2023
HD Live streaming from Space Station
objects crossing your sky now

SCOUT G-1 DEB

Track SCOUT G-1 DEB now!
10-day predictions


NORAD ID: 43330
Int'l Code: 1988-033L
Perigee: 1,008.1 km
Apogee: 1,294.3 km
Inclination: 90.3 °
Period: 108.2 minutes
Semi major axis: 7522 km
RCS: Unknown
Launch date: April 26, 1988
Source: United States (US)
Launch site: AIR FORCE WESTERN TEST RANGE (AFWTR)

Note: This is SATELLITE DEBRIS
Your satellite tracking list
Your tracking list is empty




NASA's NSSDC Master Catalog

Two Line Element Set (TLE):
1 43330U 88033L   23147.25555906  .00000649  00000-0  12312-2 0  9999
2 43330  90.3175 344.1503 0190221 220.3968 138.2916 13.30714410510915
Source of the keplerian elements: AFSPC